Volver al catálogo

STARLINK-30769

ActivoComunicacionesVLEO
NORAD 58138·PAYLOAD·🇺🇸 United States

Lanzado Oct 22, 2023 desde Cape Canaveral Space Force Station

Loading…

Próximos Pases (próximas 24 horas)

TLE

ActualizadoSource: CelesTrak SupGP

Época: Sep 15, 2026, 03:17 UTC

1 58138C 23162W   26258.13729167  .00062811  00000+0  22740-2 0  2580
2 58138  43.0017 142.2933 0001410 270.2789 106.8006 15.27561396    14

Sigue STARLINK-30769 en tiempo real con AllMySat

Download on the App Store